Precipitable_Water
0.69 0.71 0.82 0.88 0.88 0.80 0.77 0.98 1.06 1.07 1.12 1.09 0.83 0.70 0.70 0.72 0.73 0.79 0.92 1.09 1.34 1.41 1.42 1.47 1.48 1.42 1.30 1.26 1.26 1.21 1.18 1.17 1.16 1.12 1.07 1.05 1.07 1.07 1.10 1.11 1.07 1.06 1.07 1.06 1.08 1.06 1.05 1.03 1.04 1.08 1.11 1.09 1.17 1.25 1.28 1.28 1.30 1.32 1.30 1.22 1.13 1.13 1.12 1.07 0.97 0.95 1.06 1.19 1.18 1.16 1.21 1.20 1.13 1.17 1.12 1.12 1.11 1.16 1.22 1.24 1.24 1.21 1.20 1.20 1.19
0.69 0.72 0.79 0.91 0.91 0.80 0.86 0.98 1.06 1.09 1.02 0.99 0.88 0.73 0.70 0.70 0.73 0.82 0.88 1.03 1.29 1.40 1.40 1.44 1.46 1.44 1.35 1.28 1.26 1.22 1.20 1.20 1.18 1.12 1.05 1.02 1.03 1.08 1.10 1.10 1.08 1.06 1.08 1.05 1.05 1.06 1.04 1.01 1.01 1.08 1.14 1.11 1.16 1.21 1.25 1.27 1.28 1.27 1.24 1.20 1.16 1.12 1.17 1.09 1.05 1.00 0.95 1.11 1.14 1.23 1.20 1.24 1.09 1.18 1.11 1.09 1.09 1.12 1.11 1.14 1.20 1.21 1.19 1.20 1.18
0.71 0.74 0.78 0.84 0.94 0.84 0.89 0.95 1.03 1.02 0.95 0.89 0.87 0.80 0.72 0.71 0.76 0.79 0.86 0.99 1.23 1.40 1.41 1.42 1.43 1.42 1.39 1.33 1.26 1.21 1.20 1.21 1.23 1.16 1.09 1.05 1.02 1.05 1.10 1.10 1.07 1.04 1.04 1.03 1.05 1.07 1.03 0.99 0.99 1.06 1.14 1.13 1.17 1.21 1.26 1.28 1.31 1.27 1.23 1.24 1.19 1.18 1.18 1.16 1.08 1.01 1.00 1.04 1.16 1.13 1.15 1.19 1.13 1.10 1.14 1.14 1.14 1.13 1.08 1.08 1.10 1.12 1.14 1.14 1.14
0.71 0.73 0.76 0.76 0.83 0.88 0.94 1.00 1.01 0.99 0.93 0.85 0.80 0.81 0.77 0.74 0.76 0.80 0.86 0.99 1.13 1.36 1.44 1.45 1.45 1.43 1.37 1.34 1.29 1.23 1.21 1.23 1.25 1.23 1.17 1.10 1.05 1.05 1.10 1.12 1.10 1.07 1.04 1.04 1.06 1.07 1.02 0.98 0.99 1.05 1.11 1.12 1.17 1.20 1.24 1.29 1.29 1.26 1.24 1.25 1.22 1.19 1.20 1.20 1.18 1.09 1.07 1.02 1.10 1.13 1.18 1.14 1.15 1.18 1.16 1.15 1.12 1.10 1.09 1.09 1.11 1.09 1.10 1.10 1.10
0.70 0.72 0.74 0.70 0.74 0.83 0.86 0.95 1.00 0.98 0.92 0.83 0.76 0.78 0.81 0.77 0.77 0.80 0.86 0.94 1.07 1.27 1.42 1.49 1.48 1.47 1.41 1.35 1.32 1.28 1.24 1.25 1.24 1.22 1.23 1.21 1.14 1.10 1.11 1.13 1.12 1.10 1.09 1.08 1.08 1.08 1.05 0.99 1.00 1.06 1.09 1.08 1.16 1.19 1.22 1.24 1.27 1.25 1.22 1.23 1.19 1.18 1.20 1.22 1.22 1.19 1.10 1.05 1.09 1.19 1.22 1.19 1.19 1.17 1.16 1.06 1.06 1.08 1.09 1.07 1.08 1.08 1.09 1.11 1.10
0.71 0.70 0.73 0.70 0.72 0.82 0.86 0.88 0.91 0.90 0.88 0.82 0.75 0.75 0.79 0.79 0.77 0.80 0.86 0.91 1.03 1.18 1.33 1.44 1.48 1.48 1.47 1.42 1.36 1.32 1.28 1.28 1.27 1.23 1.22 1.23 1.23 1.18 1.14 1.14 1.15 1.14 1.13 1.13 1.12 1.11 1.06 1.03 1.03 1.08 1.08 1.06 1.10 1.18 1.22 1.23 1.26 1.24 1.21 1.20 1.19 1.17 1.17 1.20 1.23 1.21 1.17 1.13 1.11 1.11 1.18 1.14 1.12 1.11 1.13 1.11 1.02 0.98 0.99 1.04 1.07 1.09 1.07 1.05 1.08
0.72 0.70 0.71 0.73 0.74 0.82 0.86 0.86 0.85 0.84 0.85 0.83 0.79 0.76 0.76 0.78 0.78 0.78 0.84 0.90 1.00 1.09 1.22 1.33 1.43 1.48 1.49 1.47 1.42 1.37 1.33 1.34 1.33 1.29 1.25 1.24 1.25 1.23 1.17 1.16 1.19 1.20 1.20 1.19 1.17 1.17 1.12 1.07 1.04 1.09 1.09 1.09 1.11 1.14 1.18 1.23 1.26 1.24 1.23 1.21 1.22 1.18 1.15 1.16 1.19 1.19 1.18 1.15 1.15 1.14 1.12 1.17 1.13 1.02 1.11 1.16 1.10 1.03 0.94 0.93 0.93 1.03 1.05 1.04 1.02
0.72 0.69 0.70 0.71 0.74 0.81 0.83 0.82 0.81 0.81 0.83 0.86 0.83 0.78 0.74 0.76 0.78 0.80 0.83 0.87 0.96 1.04 1.12 1.21 1.33 1.44 1.50 1.51 1.48 1.43 1.39 1.38 1.40 1.36 1.30 1.27 1.27 1.26 1.23 1.23 1.24 1.24 1.23 1.23 1.22 1.20 1.16 1.09 1.03 1.08 1.12 1.13 1.13 1.14 1.16 1.17 1.24 1.24 1.27 1.26 1.24 1.20 1.16 1.16 1.16 1.17 1.16 1.15 1.13 1.11 1.13 1.10 1.12 1.13 1.14 1.12 1.03 0.99 1.00 0.94 0.86 0.90 0.94 1.01 1.04
0.71 0.69 0.69 0.70 0.72 0.80 0.83 0.82 0.83 0.82 0.83 0.86 0.85 0.80 0.75 0.74 0.79 0.81 0.81 0.84 0.93 1.01 1.07 1.14 1.24 1.35 1.47 1.48 1.49 1.51 1.48 1.44 1.46 1.43 1.35 1.30 1.30 1.29 1.28 1.28 1.28 1.26 1.24 1.23 1.23 1.23 1.19 1.12 1.04 1.04 1.11 1.14 1.16 1.15 1.17 1.22 1.22 1.19 1.23 1.27 1.27 1.24 1.19 1.16 1.15 1.14 1.14 1.13 1.12 1.15 1.10 1.07 1.07 1.05 1.01 0.99 0.95 0.92 1.01 1.00 0.93 0.95 0.98 0.98 1.02
0.71 0.68 0.67 0.68 0.74 0.81 0.84 0.83 0.83 0.82 0.81 0.81 0.81 0.80 0.77 0.76 0.79 0.80 0.80 0.83 0.90 0.98 1.02 1.07 1.15 1.22 1.29 1.41 1.42 1.44 1.47 1.49 1.50 1.49 1.45 1.40 1.36 1.36 1.35 1.33 1.32 1.30 1.26 1.23 1.22 1.23 1.20 1.13 1.05 1.03 1.04 1.07 1.10 1.11 1.16 1.22 1.26 1.25 1.23 1.25 1.27 1.26 1.21 1.15 1.11 1.11 1.11 1.08 1.08 1.09 1.03 1.01 1.05 1.05 1.01 1.01 1.08 1.11 1.04 1.00 0.91 0.95 0.96 0.95 1.00
0.71 0.68 0.66 0.68 0.75 0.83 0.84 0.83 0.83 0.78 0.76 0.78 0.79 0.79 0.79 0.79 0.79 0.80 0.81 0.84 0.88 0.93 0.98 1.02 1.09 1.14 1.22 1.33 1.41 1.41 1.38 1.33 1.31 1.36 1.41 1.40 1.42 1.43 1.42 1.39 1.37 1.34 1.30 1.24 1.21 1.20 1.21 1.18 1.09 1.03 1.00 1.01 1.01 1.03 1.12 1.21 1.25 1.27 1.27 1.27 1.29 1.29 1.24 1.18 1.13 1.12 1.09 1.07 1.11 1.11 1.06 1.03 1.06 1.10 1.08 1.08 1.09 1.08 1.06 1.04 0.99 0.96 0.90 0.85 0.80
0.71 0.69 0.69 0.71 0.78 0.84 0.85 0.84 0.81 0.77 0.76 0.76 0.76 0.77 0.79 0.79 0.78 0.80 0.81 0.83 0.86 0.89 0.91 0.97 1.03 1.08 1.16 1.25 1.36 1.45 1.44 1.44 1.40 1.32 1.27 1.25 1.27 1.35 1.40 1.42 1.41 1.39 1.35 1.29 1.26 1.24 1.20 1.19 1.16 1.11 1.04 0.98 0.97 0.98 1.05 1.14 1.22 1.27 1.28 1.27 1.30 1.34 1.36 1.29 1.21 1.15 1.13 1.09 1.09 1.10 1.10 1.06 1.07 1.10 1.12 1.11 1.08 1.09 1.10 1.07 1.01 0.96 0.93 0.89 0.90
0.73 0.71 0.72 0.74 0.79 0.84 0.87 0.85 0.81 0.78 0.75 0.75 0.77 0.77 0.78 0.78 0.77 0.80 0.79 0.80 0.83 0.82 0.85 0.93 0.96 1.02 1.08 1.14 1.27 1.45 1.48 1.47 1.43 1.39 1.39 1.35 1.28 1.25 1.29 1.36 1.38 1.37 1.37 1.33 1.29 1.26 1.22 1.18 1.15 1.12 1.06 1.03 1.04 1.02 1.01 1.06 1.15 1.23 1.26 1.26 1.28 1.32 1.35 1.37 1.37 1.29 1.24 1.17 1.13 1.13 1.13 1.12 1.08 1.10 1.18 1.18 1.19 1.08 1.07 1.03 1.03 1.02 1.00 0.96 0.95
0.76 0.73 0.73 0.75 0.80 0.85 0.87 0.85 0.81 0.78 0.77 0.77 0.79 0.78 0.76 0.74 0.76 0.80 0.83 0.83 0.81 0.81 0.86 0.89 0.91 0.95 1.01 1.06 1.15 1.30 1.43 1.47 1.46 1.42 1.39 1.37 1.35 1.31 1.28 1.30 1.32 1.32 1.32 1.31 1.29 1.28 1.26 1.21 1.14 1.06 1.05 1.07 1.07 1.05 1.04 1.06 1.10 1.16 1.21 1.23 1.23 1.26 1.30 1.32 1.34 1.35 1.35 1.30 1.25 1.19 1.23 1.23 1.12 1.19 1.32 1.35 1.23 1.12 1.08 1.02 1.05 1.03 1.03 0.99 1.07
0.78 0.77 0.75 0.78 0.83 0.86 0.88 0.86 0.83 0.83 0.82 0.80 0.81 0.79 0.77 0.78 0.80 0.86 0.89 0.86 0.82 0.80 0.81 0.82 0.84 0.87 0.92 0.97 1.02 1.11 1.27 1.42 1.44 1.44 1.42 1.42 1.41 1.39 1.35 1.32 1.30 1.29 1.29 1.28 1.27 1.27 1.27 1.24 1.15 1.07 1.06 1.07 1.09 1.08 1.05 1.07 1.10 1.13 1.18 1.21 1.23 1.24 1.28 1.28 1.30 1.34 1.37 1.37 1.35 1.34 1.34 1.32 1.27 1.30 1.37 1.41 1.36 1.28 1.21 1.12 1.10 1.09 1.13 1.18 1.16
0.81 0.81 0.80 0.81 0.82 0.86 0.87 0.87 0.86 0.86 0.85 0.84 0.82 0.81 0.81 0.82 0.84 0.87 0.87 0.88 0.88 0.86 0.85 0.87 0.84 0.83 0.85 0.89 0.93 0.96 1.08 1.25 1.38 1.44 1.44 1.43 1.43 1.42 1.43 1.39 1.32 1.29 1.29 1.28 1.26 1.27 1.26 1.21 1.13 1.08 1.08 1.09 1.11 1.13 1.12 1.13 1.12 1.11 1.13 1.17 1.22 1.27 1.30 1.33 1.38 1.42 1.42 1.43 1.43 1.42 1.42 1.41 1.38 1.33 1.35 1.42 1.43 1.40 1.34 1.29 1.25 1.19 1.13 1.06 1.01
0.83 0.83 0.83 0.84 0.85 0.87 0.88 0.88 0.88 0.87 0.88 0.86 0.84 0.83 0.82 0.84 0.84 0.84 0.83 0.86 0.85 0.85 0.85 0.87 0.86 0.83 0.83 0.85 0.86 0.89 0.98 1.13 1.26 1.38 1.43 1.43 1.43 1.44 1.45 1.42 1.39 1.34 1.32 1.31 1.30 1.29 1.27 1.23 1.17 1.13 1.14 1.14 1.17 1.17 1.17 1.17 1.12 1.09 1.09 1.13 1.19 1.25 1.26 1.36 1.41 1.43 1.46 1.48 1.49 1.51 1.49 1.45 1.43 1.42 1.40 1.42 1.44 1.41 1.32 1.21 1.13 1.16 1.07 0.98 0.99
0.88 0.87 0.86 0.87 0.88 0.91 0.93 0.94 0.93 0.93 0.94 0.91 0.87 0.84 0.84 0.83 0.80 0.83 0.80 0.80 0.81 0.82 0.85 0.87 0.87 0.85 0.83 0.82 0.85 0.86 0.91 1.04 1.16 1.26 1.37 1.44 1.44 1.41 1.41 1.39 1.36 1.35 1.34 1.35 1.35 1.33 1.31 1.27 1.24 1.22 1.20 1.18 1.20 1.21 1.21 1.19 1.13 1.10 1.11 1.15 1.18 1.19 1.22 1.32 1.38 1.42 1.47 1.49 1.50 1.49 1.48 1.47 1.45 1.48 1.49 1.43 1.41 1.41 1.29 1.11 1.15 1.15 1.03 1.01 0.95
0.89 0.89 0.91 0.92 0.93 0.92 0.93 0.93 0.93 0.91 0.88 0.85 0.83 0.81 0.82 0.83 0.87 0.89 0.87 0.86 0.85 0.86 0.86 0.84 0.83 0.83 0.82 0.80 0.82 0.85 0.89 0.98 1.07 1.17 1.31 1.43 1.47 1.44 1.40 1.39 1.34 1.31 1.31 1.31 1.34 1.35 1.34 1.32 1.28 1.25 1.22 1.18 1.19 1.21 1.24 1.25 1.22 1.20 1.21 1.21 1.18 1.16 1.19 1.27 1.30 1.33 1.37 1.41 1.44 1.44 1.43 1.44 1.46 1.44 1.41 1.40 1.38 1.37 1.33 1.26 1.25 1.16 1.05 1.04 1.06
0.86 0.87 0.89 0.90 0.89 0.89 0.90 0.91 0.92 0.91 0.87 0.87 0.88 0.88 0.91 0.92 0.91 0.89 0.88 0.88 0.86 0.87 0.86 0.83 0.80 0.78 0.78 0.78 0.78 0.81 0.84 0.90 0.99 1.08 1.23 1.37 1.45 1.45 1.41 1.36 1.29 1.28 1.30 1.30 1.29 1.32 1.33 1.33 1.31 1.27 1.23 1.21 1.21 1.24 1.28 1.32 1.31 1.29 1.30 1.25 1.21 1.15 1.24 1.28 1.31 1.33 1.36 1.40 1.41 1.42 1.40 1.42 1.44 1.44 1.42 1.41 1.40 1.37 1.35 1.35 1.30 1.24 1.16 1.14 1.12
0.84 0.83 0.82 0.81 0.82 0.83 0.86 0.87 0.87 0.90 0.92 0.91 0.92 0.92 0.92 0.88 0.87 0.86 0.83 0.85 0.85 0.84 0.83 0.82 0.79 0.77 0.78 0.78 0.77 0.79 0.82 0.84 0.93 1.04 1.18 1.33 1.41 1.43 1.40 1.34 1.31 1.28 1.29 1.29 1.30 1.31 1.31 1.31 1.31 1.31 1.28 1.27 1.27 1.28 1.30 1.34 1.35 1.33 1.30 1.24 1.23 1.26 1.35 1.34 1.31 1.34 1.38 1.42 1.43 1.42 1.41 1.40 1.40 1.40 1.36 1.36 1.38 1.39 1.39 1.37 1.35 1.33 1.27 1.20 1.14
0.84 0.85 0.83 0.80 0.80 0.81 0.83 0.87 0.89 0.88 0.90 0.89 0.85 0.83 0.86 0.88 0.87 0.86 0.86 0.85 0.83 0.82 0.81 0.79 0.75 0.75 0.79 0.78 0.76 0.75 0.79 0.83 0.89 1.01 1.17 1.34 1.43 1.43 1.39 1.37 1.37 1.33 1.30 1.30 1.33 1.34 1.34 1.36 1.36 1.37 1.36 1.35 1.35 1.35 1.34 1.33 1.37 1.39 1.35 1.29 1.28 1.33 1.38 1.40 1.40 1.40 1.40 1.42 1.41 1.39 1.36 1.32 1.33 1.31 1.28 1.27 1.32 1.36 1.34 1.36 1.38 1.36 1.35 1.33 1.23
0.80 0.83 0.85 0.85 0.84 0.83 0.83 0.83 0.82 0.83 0.82 0.83 0.81 0.80 0.83 0.84 0.84 0.84 0.82 0.82 0.82 0.80 0.80 0.79 0.76 0.74 0.75 0.76 0.76 0.74 0.77 0.81 0.87 0.96 1.12 1.29 1.42 1.46 1.45 1.44 1.45 1.45 1.39 1.35 1.36 1.37 1.40 1.40 1.40 1.42 1.43 1.44 1.43 1.40 1.39 1.39 1.41 1.43 1.40 1.34 1.31 1.37 1.44 1.41 1.38 1.37 1.38 1.39 1.38 1.33 1.31 1.28 1.27 1.27 1.25 1.25 1.32 1.38 1.36 1.37 1.40 1.38 1.35 1.36 1.36
0.80 0.80 0.81 0.81 0.82 0.81 0.79 0.79 0.78 0.77 0.78 0.78 0.79 0.78 0.79 0.81 0.82 0.83 0.83 0.81 0.80 0.79 0.79 0.78 0.77 0.74 0.72 0.72 0.74 0.75 0.78 0.82 0.89 0.98 1.11 1.26 1.37 1.44 1.48 1.50 1.50 1.47 1.46 1.42 1.43 1.45 1.45 1.45 1.45 1.44 1.40 1.40 1.42 1.43 1.43 1.43 1.44 1.44 1.42 1.38 1.40 1.48 1.50 1.44 1.38 1.34 1.34 1.36 1.34 1.30 1.28 1.28 1.26 1.24 1.22 1.28 1.34 1.41 1.35 1.35 1.39 1.39 1.38 1.37 1.35
0.85 0.84 0.84 0.84 0.82 0.81 0.80 0.78 0.77 0.76 0.77 0.77 0.75 0.77 0.78 0.79 0.78 0.81 0.82 0.82 0.81 0.79 0.78 0.78 0.75 0.73 0.73 0.72 0.72 0.74 0.78 0.84 0.90 0.98 1.09 1.23 1.34 1.39 1.43 1.47 1.49 1.48 1.44 1.44 1.45 1.45 1.45 1.46 1.46 1.45 1.46 1.46 1.46 1.47 1.47 1.46 1.44 1.42 1.40 1.39 1.43 1.48 1.49 1.44 1.37 1.33 1.28 1.28 1.29 1.29 1.29 1.26 1.24 1.24 1.27 1.32 1.39 1.38 1.33 1.35 1.36 1.39 1.40 1.38 1.33
0.81 0.82 0.84 0.84 0.83 0.82 0.78 0.77 0.78 0.79 0.80 0.81 0.80 0.80 0.80 0.81 0.79 0.80 0.82 0.81 0.82 0.81 0.81 0.80 0.76 0.75 0.75 0.74 0.72 0.73 0.78 0.84 0.90 0.96 1.05 1.15 1.26 1.35 1.41 1.44 1.45 1.46 1.46 1.44 1.45 1.44 1.43 1.42 1.43 1.46 1.47 1.47 1.47 1.44 1.42 1.40 1.37 1.38 1.39 1.40 1.43 1.45 1.48 1.46 1.40 1.32 1.26 1.27 1.28 1.26 1.25 1.27 1.27 1.30 1.32 1.32 1.30 1.28 1.28 1.25 1.25 1.26 1.28 1.25 1.20
0.79 0.79 0.77 0.73 0.72 0.73 0.73 0.76 0.82 0.86 0.85 0.83 0.84 0.84 0.84 0.85 0.85 0.83 0.83 0.81 0.80 0.81 0.82 0.82 0.80 0.78 0.75 0.75 0.76 0.78 0.80 0.84 0.89 0.94 1.00 1.07 1.16 1.24 1.32 1.37 1.42 1.46 1.45 1.46 1.46 1.44 1.44 1.43 1.43 1.45 1.49 1.49 1.47 1.44 1.39 1.38 1.36 1.36 1.36 1.38 1.42 1.46 1.49 1.48 1.41 1.34 1.30 1.30 1.28 1.28 1.30 1.33 1.35 1.33 1.29 1.26 1.23 1.26 1.29 1.26 1.23 1.20 1.21 1.19 1.15
0.85 0.81 0.80 0.84 0.88 0.95 0.95 0.96 0.98 0.96 0.95 0.93 0.86 0.85 0.88 0.92 0.90 0.87 0.87 0.85 0.82 0.82 0.81 0.79 0.78 0.77 0.76 0.77 0.79 0.81 0.83 0.85 0.88 0.91 0.98 1.05 1.11 1.17 1.21 1.26 1.31 1.34 1.35 1.37 1.38 1.41 1.42 1.43 1.44 1.42 1.41 1.39 1.36 1.34 1.33 1.35 1.37 1.38 1.37 1.40 1.42 1.42 1.45 1.45 1.42 1.38 1.38 1.38 1.36 1.36 1.34 1.32 1.29 1.27 1.28 1.25 1.22 1.23 1.26 1.24 1.20 1.17 1.16 1.13 1.07
0.90 0.86 0.85 0.89 0.93 0.99 0.99 1.00 1.01 1.05 1.02 1.00 0.99 0.98 0.98 0.98 0.96 0.97 0.98 0.97 0.94 0.86 0.79 0.78 0.79 0.81 0.82 0.80 0.78 0.77 0.79 0.80 0.86 1.00 1.07 1.12 1.13 1.13 1.15 1.18 1.23 1.26 1.29 1.32 1.33 1.35 1.36 1.35 1.33 1.33 1.31 1.27 1.26 1.27 1.31 1.36 1.37 1.38 1.38 1.40 1.41 1.40 1.39 1.35 1.28 1.27 1.30 1.34 1.31 1.30 1.28 1.28 1.26 1.26 1.25 1.23 1.20 1.20 1.23 1.22 1.22 1.16 1.13 1.12 1.06
0.89 0.88 0.93 0.95 0.94 0.95 1.00 0.97 0.99 1.03 1.02 1.01 0.97 0.98 1.07 1.07 1.05 1.01 1.01 1.02 1.00 0.98 0.94 0.87 0.87 0.88 0.86 0.87 0.88 0.82 0.81 0.89 1.01 1.05 1.08 1.10 1.13 1.14 1.16 1.19 1.23 1.27 1.31 1.34 1.34 1.27 1.25 1.25 1.26 1.26 1.26 1.25 1.25 1.27 1.24 1.29 1.34 1.33 1.33 1.35 1.36 1.34 1.32 1.29 1.26 1.24 1.27 1.31 1.32 1.30 1.27 1.24 1.21 1.22 1.22 1.21 1.20 1.21 1.22 1.22 1.18 1.17 1.10 1.07 1.06
0.86 0.90 0.91 0.90 0.91 0.95 0.98 0.97 0.92 0.95 1.00 1.03 1.02 1.01 1.00 1.04 1.10 1.06 1.03 1.04 1.02 1.00 1.01 1.00 1.01 1.04 1.02 0.97 1.04 1.07 1.05 1.04 1.03 1.04 1.07 1.09 1.12 1.15 1.16 1.17 1.21 1.25 1.29 1.27 1.24 1.19 1.16 1.15 1.17 1.19 1.20 1.21 1.20 1.19 1.21 1.27 1.34 1.34 1.30 1.30 1.30 1.30 1.28 1.26 1.26 1.28 1.27 1.28 1.31 1.31 1.28 1.23 1.20 1.20 1.19 1.19 1.18 1.18 1.19 1.20 1.18 1.14 1.10 1.09 1.07
0.81 0.84 0.87 0.90 0.93 0.92 0.93 0.94 0.93 0.95 0.93 1.00 1.05 1.06 1.06 1.02 1.00 1.06 1.10 1.07 1.06 1.04 1.04 1.05 1.07 1.06 1.08 1.11 1.10 1.09 1.08 1.07 1.06 1.07 1.09 1.12 1.15 1.17 1.19 1.19 1.20 1.22 1.24 1.26 1.17 1.14 1.18 1.16 1.14 1.14 1.17 1.16 1.16 1.20 1.22 1.25 1.30 1.32 1.34 1.31 1.28 1.29 1.26 1.22 1.27 1.28 1.29 1.29 1.29 1.31 1.27 1.22 1.20 1.19 1.19 1.19 1.18 1.17 1.15 1.13 1.12 1.10 1.10 1.11 1.09
0.76 0.80 0.84 0.87 0.89 0.93 0.90 0.91 0.92 0.97 0.93 0.95 0.95 1.03 1.01 0.97 0.96 0.98 1.00 1.10 1.11 1.11 1.06 1.11 1.17 1.22 1.21 1.17 1.12 1.09 1.08 1.05 1.07 1.09 1.12 1.15 1.17 1.20 1.22 1.21 1.19 1.19 1.19 1.14 1.09 1.08 1.11 1.12 1.11 1.13 1.15 1.13 1.12 1.11 1.12 1.13 1.15 1.17 1.20 1.20 1.20 1.25 1.31 1.34 1.37 1.35 1.35 1.32 1.32 1.32 1.30 1.26 1.23 1.21 1.20 1.19 1.18 1.15 1.12 1.11 1.13 1.12 1.11 1.09 1.09
0.76 0.76 0.77 0.79 0.82 0.84 0.87 0.90 0.90 0.93 0.92 0.95 0.95 0.95 0.95 1.00 0.99 0.99 1.01 1.04 1.04 1.09 1.11 1.20 1.21 1.25 1.29 1.26 1.21 1.13 1.11 1.11 1.12 1.12 1.13 1.13 1.15 1.19 1.22 1.21 1.20 1.20 1.18 1.12 1.12 1.10 1.12 1.10 1.10 1.11 1.13 1.14 1.15 1.16 1.16 1.16 1.17 1.18 1.21 1.25 1.28 1.32 1.36 1.43 1.32 1.31 1.31 1.27 1.28 1.31 1.32 1.28 1.24 1.22 1.19 1.18 1.17 1.16 1.13 1.16 1.12 1.12 1.14 1.14 1.12
0.73 0.74 0.75 0.75 0.75 0.76 0.79 0.82 0.84 0.86 0.89 0.90 0.91 0.93 0.95 0.99 1.01 1.01 0.99 0.97 0.95 0.98 1.03 1.15 1.24 1.27 1.26 1.26 1.22 1.22 1.20 1.21 1.20 1.19 1.20 1.19 1.18 1.19 1.20 1.17 1.13 1.12 1.12 1.14 1.15 1.15 1.14 1.13 1.12 1.13 1.14 1.13 1.15 1.18 1.19 1.21 1.24 1.27 1.29 1.30 1.33 1.34 1.37 1.34 1.34 1.33 1.30 1.28 1.27 1.28 1.28 1.26 1.25 1.25 1.21 1.16 1.12 1.11 1.13 1.12 1.13 1.13 1.13 1.15 1.15
0.70 0.70 0.71 0.72 0.72 0.72 0.73 0.76 0.78 0.80 0.81 0.85 0.89 0.90 0.92 0.96 0.98 0.98 1.01 1.01 0.97 0.96 0.99 1.07 1.13 1.18 1.19 1.19 1.21 1.21 1.21 1.23 1.24 1.24 1.22 1.21 1.20 1.19 1.11 1.11 1.13 1.13 1.15 1.18 1.19 1.18 1.17 1.15 1.14 1.16 1.17 1.16 1.17 1.16 1.18 1.20 1.23 1.26 1.30 1.31 1.32 1.33 1.33 1.32 1.30 1.25 1.30 1.31 1.29 1.27 1.25 1.26 1.28 1.28 1.25 1.20 1.15 1.16 1.15 1.12 1.12 1.13 1.15 1.14 1.13
0.68 0.67 0.67 0.68 0.69 0.69 0.70 0.72 0.74 0.76 0.78 0.79 0.83 0.86 0.89 0.92 0.94 0.97 0.97 0.98 1.01 0.99 0.97 1.02 1.06 1.08 1.11 1.12 1.13 1.15 1.17 1.19 1.22 1.24 1.25 1.23 1.23 1.21 1.17 1.15 1.15 1.16 1.16 1.18 1.20 1.20 1.18 1.18 1.20 1.18 1.18 1.17 1.18 1.19 1.20 1.22 1.25 1.26 1.27 1.30 1.33 1.34 1.34 1.35 1.35 1.33 1.31 1.27 1.26 1.30 1.30 1.32 1.30 1.30 1.26 1.21 1.18 1.19 1.18 1.18 1.16 1.16 1.15 1.13 1.11
0.65 0.64 0.64 0.65 0.66 0.67 0.66 0.66 0.68 0.71 0.73 0.74 0.76 0.79 0.81 0.85 0.89 0.92 0.92 0.92 0.93 0.97 0.98 0.97 0.98 0.98 0.97 1.01 1.09 1.10 1.12 1.15 1.16 1.16 1.19 1.20 1.17 1.16 1.16 1.17 1.19 1.18 1.17 1.22 1.24 1.24 1.22 1.24 1.26 1.24 1.24 1.25 1.23 1.24 1.24 1.25 1.29 1.32 1.32 1.31 1.32 1.32 1.34 1.34 1.31 1.30 1.30 1.29 1.27 1.26 1.26 1.24 1.24 1.28 1.29 1.24 1.21 1.20 1.19 1.19 1.22 1.14 1.15 1.13 1.10
0.65 0.64 0.64 0.63 0.63 0.62 0.63 0.63 0.64 0.64 0.65 0.67 0.68 0.70 0.71 0.75 0.78 0.81 0.86 0.89 0.89 0.89 0.90 0.94 0.95 0.95 0.96 1.00 1.02 1.06 1.06 1.05 1.04 1.04 1.07 1.10 1.15 1.16 1.16 1.19 1.20 1.19 1.19 1.19 1.20 1.21 1.22 1.23 1.28 1.30 1.30 1.29 1.29 1.29 1.28 1.26 1.29 1.31 1.34 1.33 1.31 1.30 1.28 1.27 1.26 1.26 1.23 1.21 1.21 1.22 1.22 1.23 1.26 1.27 1.27 1.25 1.23 1.20 1.19 1.19 1.19 1.17 1.16 1.15 1.12
0.65 0.65 0.65 0.65 0.63 0.62 0.61 0.61 0.61 0.61 0.61 0.61 0.62 0.64 0.65 0.67 0.69 0.71 0.74 0.78 0.81 0.84 0.84 0.84 0.85 0.89 0.94 0.97 0.98 1.00 0.97 0.97 0.99 1.01 1.02 1.04 1.05 1.08 1.11 1.13 1.14 1.14 1.15 1.15 1.15 1.16 1.17 1.21 1.26 1.29 1.27 1.26 1.27 1.28 1.29 1.27 1.26 1.28 1.31 1.30 1.28 1.26 1.25 1.24 1.23 1.20 1.17 1.18 1.19 1.21 1.20 1.20 1.21 1.23 1.24 1.23 1.18 1.16 1.17 1.16 1.16 1.17 1.13 1.12 1.14
0.64 0.64 0.64 0.64 0.64 0.63 0.62 0.60 0.59 0.59 0.60 0.60 0.60 0.60 0.59 0.61 0.64 0.66 0.68 0.70 0.72 0.76 0.78 0.80 0.81 0.84 0.87 0.90 0.94 0.95 0.94 0.93 0.95 0.97 0.98 0.99 1.01 1.03 1.05 1.08 1.09 1.09 1.11 1.12 1.13 1.13 1.12 1.12 1.14 1.16 1.18 1.19 1.20 1.19 1.20 1.20 1.21 1.23 1.24 1.24 1.23 1.22 1.23 1.24 1.22 1.19 1.19 1.19 1.18 1.18 1.19 1.20 1.18 1.16 1.14 1.15 1.18 1.19 1.17 1.19 1.17 1.15 1.14 1.13 1.14
0.65 0.63 0.62 0.62 0.62 0.62 0.61 0.60 0.60 0.60 0.60 0.59 0.59 0.59 0.58 0.58 0.59 0.61 0.62 0.64 0.66 0.68 0.71 0.75 0.78 0.81 0.84 0.86 0.87 0.90 0.90 0.90 0.92 0.92 0.93 0.93 0.94 0.95 0.99 1.02 1.05 1.06 1.07 1.10 1.13 1.13 1.12 1.12 1.11 1.11 1.10 1.10 1.11 1.12 1.13 1.12 1.13 1.16 1.18 1.19 1.19 1.18 1.17 1.19 1.20 1.20 1.18 1.15 1.16 1.17 1.18 1.18 1.15 1.12 1.11 1.13 1.12 1.11 1.12 1.12 1.16 1.13 1.12 1.09 1.11
0.57 0.61 0.63 0.63 0.62 0.60 0.60 0.60 0.61 0.61 0.60 0.59 0.59 0.59 0.60 0.59 0.58 0.58 0.59 0.61 0.63 0.64 0.65 0.67 0.71 0.76 0.79 0.81 0.82 0.84 0.84 0.84 0.84 0.85 0.85 0.86 0.87 0.89 0.90 0.92 0.96 1.00 1.03 1.04 1.06 1.06 1.05 1.05 1.03 1.01 0.99 0.97 0.98 0.99 1.01 1.04 1.08 1.09 1.11 1.12 1.13 1.15 1.15 1.16 1.18 1.18 1.19 1.17 1.15 1.17 1.21 1.20 1.17 1.15 1.12 1.11 1.10 1.08 1.05 1.05 1.08 1.12 1.11 1.10 1.08
0.46 0.48 0.51 0.55 0.60 0.62 0.62 0.60 0.59 0.59 0.60 0.60 0.61 0.61 0.60 0.59 0.59 0.59 0.58 0.58 0.59 0.61 0.62 0.64 0.66 0.68 0.71 0.76 0.79 0.79 0.78 0.78 0.78 0.77 0.78 0.78 0.78 0.78 0.80 0.81 0.83 0.87 0.93 0.98 1.01 1.02 1.01 0.99 0.97 0.98 0.99 0.99 0.99 0.99 0.98 0.99 1.00 0.99 0.99 1.00 1.01 1.05 1.09 1.12 1.14 1.17 1.19 1.19 1.18 1.20 1.23 1.25 1.26 1.22 1.17 1.14 1.11 1.08 1.06 1.05 1.04 1.04 1.07 1.09 1.09
0.41 0.42 0.43 0.44 0.45 0.47 0.52 0.57 0.59 0.59 0.58 0.58 0.59 0.60 0.61 0.61 0.60 0.59 0.59 0.59 0.59 0.59 0.60 0.61 0.63 0.64 0.65 0.67 0.68 0.69 0.70 0.72 0.72 0.73 0.73 0.72 0.72 0.72 0.73 0.74 0.77 0.80 0.82 0.87 0.92 0.95 0.97 0.97 0.98 0.97 0.97 0.99 1.01 1.01 1.00 1.00 1.00 0.99 0.98 0.97 0.95 0.95 0.97 1.03 1.10 1.17 1.20 1.20 1.22 1.23 1.23 1.25 1.25 1.23 1.20 1.18 1.16 1.13 1.10 1.08 1.07 1.06 1.05 1.04 1.03
0.40 0.39 0.39 0.40 0.41 0.41 0.42 0.43 0.46 0.50 0.54 0.56 0.56 0.57 0.58 0.59 0.60 0.60 0.60 0.60 0.60 0.60 0.60 0.60 0.60 0.61 0.62 0.63 0.66 0.67 0.69 0.70 0.70 0.70 0.70 0.71 0.72 0.71 0.72 0.71 0.72 0.73 0.75 0.77 0.80 0.84 0.88 0.92 0.94 0.94 0.94 0.95 0.96 0.96 0.95 0.94 0.95 0.96 0.98 0.99 0.99 0.98 1.01 1.05 1.09 1.12 1.14 1.15 1.16 1.17 1.20 1.23 1.25 1.23 1.20 1.17 1.13 1.11 1.09 1.08 1.06 1.03 0.99 0.98 1.01
0.41 0.40 0.40 0.40 0.40 0.40 0.41 0.42 0.42 0.41 0.42 0.43 0.47 0.52 0.56 0.58 0.59 0.60 0.61 0.61 0.61 0.61 0.61 0.61 0.61 0.59 0.59 0.59 0.60 0.61 0.63 0.65 0.67 0.68 0.69 0.69 0.70 0.71 0.71 0.71 0.71 0.72 0.73 0.75 0.77 0.78 0.79 0.81 0.83 0.85 0.88 0.92 0.95 0.96 0.95 0.94 0.93 0.94 0.95 0.95 0.96 0.98 1.01 1.02 1.04 1.05 1.07 1.10 1.13 1.15 1.17 1.18 1.18 1.17 1.17 1.14 1.08 1.03 1.00 1.01 1.01 1.00 1.01 1.00 1.00
0.42 0.41 0.40 0.40 0.39 0.39 0.40 0.41 0.41 0.41 0.41 0.41 0.41 0.42 0.44 0.49 0.53 0.56 0.58 0.60 0.61 0.61 0.62 0.62 0.62 0.62 0.62 0.61 0.61 0.60 0.60 0.61 0.62 0.64 0.65 0.67 0.68 0.69 0.70 0.70 0.70 0.70 0.72 0.73 0.73 0.73 0.72 0.73 0.75 0.79 0.83 0.86 0.89 0.92 0.95 0.96 0.96 0.96 0.96 0.96 0.97 0.97 0.97 1.00 1.01 1.02 1.04 1.05 1.07 1.09 1.11 1.11 1.10 1.10 1.10 1.07 1.03 1.01 0.98 0.97 0.99 1.00 1.00 0.99 0.99
0.42 0.41 0.40 0.39 0.38 0.38 0.38 0.38 0.38 0.38 0.39 0.40 0.39 0.40 0.41 0.42 0.43 0.45 0.49 0.53 0.57 0.60 0.61 0.62 0.62 0.63 0.63 0.63 0.63 0.63 0.62 0.61 0.60 0.60 0.60 0.62 0.63 0.65 0.66 0.67 0.69 0.70 0.70 0.69 0.69 0.69 0.70 0.71 0.71 0.70 0.71 0.74 0.78 0.82 0.87 0.90 0.92 0.94 0.95 0.95 0.95 0.96 0.97 0.98 0.99 1.01 1.04 1.05 1.06 1.06 1.06 1.06 1.05 1.04 1.03 1.01 1.00 1.00 0.99 1.00 1.00 0.99 0.98 0.96 0.96
0.42 0.42 0.41 0.41 0.40 0.39 0.40 0.39 0.38 0.37 0.37 0.38 0.38 0.38 0.39 0.40 0.41 0.41 0.42 0.43 0.46 0.50 0.55 0.59 0.61 0.63 0.63 0.63 0.63 0.63 0.63 0.63 0.62 0.62 0.62 0.62 0.62 0.62 0.63 0.63 0.63 0.64 0.64 0.65 0.67 0.68 0.69 0.69 0.70 0.70 0.71 0.72 0.73 0.73 0.74 0.77 0.81 0.84 0.88 0.91 0.93 0.95 0.96 0.97 0.98 0.99 0.99 1.00 1.02 1.03 1.03 1.02 1.01 1.00 0.99 0.97 0.95 0.94 0.93 0.92 0.93 0.93 0.94 0.94 0.94
0.40 0.41 0.40 0.40 0.40 0.40 0.40 0.39 0.38 0.37 0.37 0.37 0.36 0.36 0.37 0.37 0.39 0.40 0.41 0.41 0.41 0.42 0.45 0.49 0.54 0.59 0.62 0.64 0.65 0.65 0.64 0.64 0.64 0.64 0.64 0.64 0.64 0.63 0.63 0.63 0.63 0.63 0.63 0.64 0.64 0.64 0.65 0.67 0.68 0.69 0.71 0.72 0.74 0.76 0.76 0.76 0.76 0.76 0.78 0.81 0.85 0.88 0.91 0.93 0.94 0.96 0.97 0.97 0.98 0.97 0.96 0.95 0.94 0.92 0.91 0.90 0.90 0.88 0.86 0.86 0.86 0.88 0.91 0.93 0.92
Wind_Speed
38 40 44 47 48 48 48 48 46 46 46 46 45 44 43 43 43 42 41 41 41 42 43 42 41 41 42 44 44 41 40 41 40 39 38 37 37 37 36 34 32 30 29 28 27 25 25 23 21 20 19 18 17 15 14 13 12 12 12 12 12 12 12 11 10 9 9 9 9 8 8 7 8 8 8 7 7 7 7 7 7 8 8 9 9
38 39 42 45 47 47 48 47 45 45 46 46 46 44 43 43 43 43 42 41 41 42 43 42 41 41 42 44 44 42 40 40 41 40 39 38 38 37 36 34 32 31 30 29 28 27 26 25 23 21 20 19 18 17 16 14 13 13 13 12 13 13 13 12 11 10 10 10 10 10 9 9 9 9 9 8 8 8 8 8 8 8 9 9 10
37 39 41 44 46 46 48 47 45 44 45 46 45 44 43 43 44 43 42 41 41 42 43 43 42 41 43 45 45 43 41 41 41 41 40 39 38 38 36 35 33 32 31 30 29 28 27 27 25 22 21 20 19 18 17 15 15 14 13 13 13 13 13 13 13 12 11 11 11 11 11 11 11 10 10 9 9 9 9 9 9 9 10 10 10
36 38 41 43 44 45 47 46 45 44 44 45 45 44 43 43 44 44 43 41 41 42 42 42 42 42 44 45 45 44 42 41 41 40 40 40 39 38 37 36 34 33 32 31 30 29 29 28 26 25 23 22 21 20 18 17 16 15 14 14 14 14 14 14 14 13 13 13 13 13 12 12 12 12 11 11 10 10 10 11 11 11 11 10 11
36 37 40 42 43 45 44 44 44 44 44 45 45 44 43 43 44 44 43 42 41 41 42 42 42 43 44 45 45 45 43 42 42 41 40 40 39 39 38 37 35 34 33 33 32 30 30 30 28 27 25 24 23 22 20 19 18 17 16 15 15 15 14 15 15 14 14 14 14 14 13 13 13 13 13 12 12 12 12 12 12 12 12 12 12
36 37 40 41 44 46 44 42 43 44 43 44 45 44 43 43 44 45 44 43 41 41 42 42 42 43 43 44 46 46 45 43 43 43 41 40 38 38 38 38 37 36 34 33 33 32 31 31 30 28 27 26 25 24 22 21 20 19 18 17 16 16 15 15 15 15 15 15 15 15 15 15 15 14 14 14 13 13 13 13 13 13 13 13 13
36 37 40 42 43 46 45 44 44 44 43 44 44 43 43 44 44 45 45 44 42 41 42 42 43 43 43 44 45 46 46 45 45 45 43 41 39 37 38 38 37 36 35 34 34 33 32 32 31 29 28 27 26 25 24 23 22 21 20 18 18 17 17 16 16 16 16 16 16 16 16 16 16 16 15 15 15 15 14 14 14 14 14 14 15
37 37 40 42 43 44 45 45 44 43 42 43 43 43 43 43 44 45 45 44 43 42 42 42 42 43 43 44 45 46 46 47 47 47 45 43 40 38 37 37 37 36 35 35 35 34 34 33 32 31 30 29 28 27 26 25 24 23 22 20 19 19 18 17 17 17 17 17 17 17 16 16 16 16 16 16 16 16 16 16 15 15 15 15 15
37 37 39 42 43 44 44 44 43 41 41 41 43 43 43 43 44 44 45 45 44 42 42 41 42 43 43 43 44 45 46 47 47 47 46 44 42 40 38 37 36 36 35 35 35 36 35 34 33 32 31 31 30 29 28 27 26 24 23 22 21 20 20 19 18 18 18 17 17 17 17 17 17 17 17 17 18 18 18 17 17 16 16 16 16
38 37 38 40 42 43 44 43 42 40 40 41 42 43 43 42 43 44 45 45 44 43 42 41 41 42 43 43 43 43 44 46 47 47 47 45 43 42 40 38 37 36 35 35 36 37 37 35 34 34 33 32 32 30 29 28 28 26 25 24 23 22 21 21 20 20 19 18 18 18 18 18 18 18 18 18 18 18 18 18 18 17 17 17 17
38 37 37 38 40 42 43 43 43 41 40 40 41 42 42 42 42 43 44 44 44 43 43 42 42 42 42 42 41 41 42 43 46 48 48 47 45 43 42 40 38 37 36 36 37 38 38 36 35 35 34 33 32 31 30 29 29 28 27 26 25 24 23 22 22 22 21 20 20 20 20 20 19 19 19 19 19 19 19 19 19 18 17 17 18
37 36 36 36 38 40 42 43 43 42 41 40 40 41 41 42 42 42 43 44 44 44 43 43 43 42 41 41 41 41 40 41 43 46 48 49 47 45 43 42 40 38 37 37 37 38 38 37 36 35 35 34 33 32 31 31 30 29 28 28 27 26 25 24 23 23 23 22 21 21 21 21 21 20 20 20 20 20 20 20 20 19 19 18 19
35 35 35 35 36 38 40 41 42 42 41 40 40 40 41 41 42 42 43 43 44 44 44 43 43 42 41 40 40 40 41 41 42 43 46 48 49 47 45 43 41 39 38 38 38 38 38 37 36 36 35 35 34 32 31 31 31 30 30 29 28 28 27 26 26 25 25 24 24 23 23 23 22 22 22 21 21 20 21 21 21 21 20 20 21
33 34 33 34 34 36 38 40 41 41 41 39 39 40 41 41 42 42 43 43 44 44 43 43 44 43 42 40 40 40 40 41 42 43 44 46 48 48 46 45 43 41 40 39 39 39 38 37 37 37 36 35 34 33 32 32 32 32 31 30 30 29 29 28 28 27 26 26 25 25 24 24 24 23 23 22 22 21 21 21 22 22 22 22 22
30 32 32 32 33 34 36 38 39 40 40 39 39 40 41 41 42 42 43 43 44 44 43 44 44 43 42 41 40 40 40 41 42 42 43 43 45 47 47 46 44 43 42 41 40 39 39 38 37 37 36 36 35 34 33 33 32 32 32 32 31 31 30 30 30 29 28 27 27 26 26 25 25 25 24 24 24 23 22 22 22 22 22 22 22
28 29 30 30 31 33 34 36 38 38 39 39 39 40 41 41 41 42 42 43 44 44 44 44 44 44 43 42 41 41 40 41 41 42 43 43 43 45 47 47 45 44 43 42 41 40 40 39 38 37 37 36 36 36 35 34 34 33 33 33 33 32 32 32 32 32 31 30 29 28 28 27 27 26 26 25 24 24 23 23 22 22 22 22 22
25 26 28 28 29 31 33 34 36 37 38 39 39 39 40 41 41 41 42 43 44 44 44 44 44 44 43 43 42 41 40 40 41 42 43 43 42 43 46 47 46 44 44 44 43 42 41 40 39 38 38 37 37 36 35 35 34 34 34 34 33 33 33 33 33 33 33 32 31 30 29 29 29 28 27 26 25 24 24 23 23 23 22 22 22
22 24 25 26 27 28 30 33 35 36 38 38 38 38 39 40 41 41 42 42 43 44 44 44 44 44 44 44 43 42 41 40 41 41 42 43 43 43 44 46 47 45 45 44 43 42 42 41 40 39 38 38 37 37 36 36 35 35 34 34 34 34 35 34 34 34 34 33 32 31 30 30 30 29 29 28 27 26 25 25 24 24 23 23 23
19 21 23 24 25 26 28 31 33 35 36 37 37 38 39 40 40 41 42 42 43 44 44 44 44 44 44 44 44 43 42 41 41 41 41 42 43 42 43 45 47 47 46 45 44 43 43 42 41 40 39 38 38 37 37 37 36 36 35 35 35 35 35 35 35 36 35 34 34 33 32 31 31 30 30 30 29 28 28 27 26 25 24 24 23
17 19 21 22 24 26 27 29 31 33 35 36 36 37 38 39 40 42 43 43 43 44 44 44 44 44 45 45 45 44 43 41 41 41 41 41 42 43 43 44 46 47 47 45 44 44 43 43 42 41 40 39 38 38 38 38 38 37 36 36 36 36 36 36 37 37 37 37 36 35 34 33 32 31 31 31 30 30 30 29 27 26 25 24 24
15 17 19 21 23 24 26 27 29 31 33 35 36 37 38 39 41 42 43 43 43 44 44 45 45 45 45 45 45 44 43 42 41 41 41 41 42 43 43 44 45 46 47 47 46 45 44 43 42 42 41 40 40 40 40 40 40 39 38 38 38 38 38 38 39 39 38 38 37 36 36 35 34 32 31 31 31 31 30 29 28 27 26 25 25
13 14 17 19 21 23 25 26 27 28 30 33 35 37 38 39 40 41 42 43 44 44 44 45 45 45 45 45 45 45 44 43 42 41 41 41 42 43 44 44 45 45 46 47 48 47 46 44 43 43 43 42 42 41 41 41 41 41 41 41 41 41 41 40 40 40 39 39 38 37 37 36 35 34 32 32 31 31 30 29 29 28 28 27 27
11 12 14 16 19 21 23 25 27 28 30 32 34 36 38 39 40 41 43 44 44 45 45 45 45 45 44 44 45 45 44 43 42 41 41 41 41 42 43 43 44 44 45 46 47 48 48 47 46 45 45 44 43 43 43 43 43 43 44 44 43 43 42 42 42 42 41 40 39 37 37 37 36 35 34 33 32 31 31 30 30 29 29 29 29
9 10 12 14 17 19 22 24 27 29 30 32 34 36 37 39 40 41 42 43 44 44 44 44 45 44 44 44 44 44 44 43 43 42 41 41 41 42 43 43 43 43 44 45 45 46 47 47 48 48 48 47 46 46 45 45 44 44 44 44 43 43 42 42 43 42 42 41 40 38 38 38 37 36 35 33 32 32 31 30 30 30 30 29 29
7 8 10 12 15 17 20 23 26 29 31 32 34 36 37 39 40 41 42 43 44 44 44 44 44 44 44 43 43 44 44 44 43 42 41 41 41 41 42 43 43 44 44 44 44 45 45 46 47 48 48 48 47 47 47 46 45 45 44 43 42 42 42 42 42 41 41 41 40 39 38 38 38 36 34 33 32 31 31 30 30 30 29 28 28
6 7 9 10 12 16 20 23 26 29 31 33 34 35 36 38 39 40 41 42 43 44 44 44 44 44 43 43 43 44 44 44 43 42 41 40 40 41 42 42 43 43 44 44 44 45 45 45 45 46 47 47 47 47 47 46 46 45 43 42 42 42 42 41 41 41 41 41 40 39 38 38 37 36 34 33 32 32 31 30 30 30 29 29 29
5 6 7 9 11 15 18 21 24 28 31 33 34 35 35 36 37 38 40 42 43 44 44 44 44 44 43 43 43 43 44 44 43 42 41 40 40 40 41 41 41 42 42 42 43 43 42 43 43 44 44 45 46 46 46 45 45 44 43 42 41 41 40 39 39 40 41 41 40 39 38 38 38 36 35 34 33 32 32 31 31 30 30 30 29
5 6 7 8 10 10 11 13 16 20 25 28 31 32 33 34 35 37 38 41 42 43 43 44 43 43 43 42 42 43 44 44 43 42 40 40 40 40 40 41 41 41 41 41 41 41 41 41 42 42 43 44 44 44 44 44 44 44 43 42 41 40 39 38 38 38 39 39 39 39 39 39 39 38 36 35 34 33 32 32 32 31 31 30 30
6 7 7 8 8 8 8 7 6 8 13 19 23 27 29 30 32 34 36 38 40 42 42 42 42 42 42 42 42 43 43 44 43 42 40 40 39 39 40 40 40 41 41 41 41 41 41 41 41 42 42 43 43 43 43 43 43 43 42 42 41 41 39 38 38 38 38 39 39 39 39 39 39 38 37 36 35 34 33 33 33 32 31 31 31
7 7 7 7 8 8 7 6 5 3 3 8 13 18 23 26 28 30 32 34 37 39 40 41 41 42 42 42 42 43 43 42 42 42 41 40 39 39 39 39 39 40 40 40 40 40 40 40 40 41 41 41 42 42 42 42 42 42 42 42 41 41 40 40 40 39 39 40 40 40 40 39 39 38 38 37 36 35 35 34 34 33 32 32 32
7 7 7 7 8 8 6 5 5 5 2 3 5 9 14 18 22 25 28 30 33 35 37 39 40 41 41 41 42 43 43 42 41 41 41 40 40 39 39 38 38 38 39 39 39 39 39 39 39 39 40 40 40 40 40 40 40 41 41 41 41 41 41 41 41 41 40 41 41 41 41 40 40 39 39 38 37 36 36 35 35 34 33 33 33
7 7 8 8 8 7 7 5 4 4 3 1 1 4 7 10 13 16 22 27 29 30 33 35 36 38 40 40 41 41 41 41 41 41 41 40 40 39 39 38 38 38 38 38 38 38 39 39 39 39 39 39 39 39 39 39 39 40 40 41 41 42 42 42 42 42 42 42 42 42 42 41 40 39 39 38 38 37 37 36 36 35 34 34 34
8 8 8 8 8 8 7 5 4 4 4 2 1 1 3 6 7 8 13 19 23 24 26 27 30 33 36 38 39 39 39 39 39 39 39 39 39 39 38 38 37 38 38 38 38 38 38 38 38 38 38 38 38 39 39 39 39 39 40 41 41 42 42 42 42 42 42 42 42 42 42 41 40 39 38 38 38 38 38 37 36 35 35 35 34
8 9 9 9 8 8 7 6 5 5 5 3 2 1 2 4 7 7 9 13 17 19 20 21 22 25 29 31 34 36 37 37 37 37 38 38 38 38 37 37 37 37 38 38 38 38 38 37 37 37 37 37 37 37 37 37 38 38 38 39 39 39 40 41 41 41 41 41 42 42 41 40 39 39 38 38 38 38 38 37 36 36 35 35 35
9 10 10 10 9 9 8 8 7 6 5 4 3 3 3 3 5 7 8 11 14 16 18 18 17 19 22 24 26 29 32 34 35 36 37 37 37 37 37 36 37 37 37 38 37 37 37 37 36 36 36 36 36 36 36 36 36 36 36 37 37 37 38 38 39 39 39 39 40 41 41 40 40 39 38 38 37 38 38 38 37 37 37 36 36
10 10 11 10 10 9 9 9 8 7 6 5 4 5 5 4 3 4 6 9 12 15 17 17 17 17 18 19 21 23 26 29 31 33 35 36 37 37 37 38 38 38 38 38 37 37 37 37 36 36 36 36 36 36 36 36 36 36 35 35 36 36 36 36 37 37 37 38 39 40 41 41 41 40 39 39 38 39 39 39 39 38 37 37 37
10 10 10 10 10 10 10 9 9 8 8 7 6 6 7 6 5 5 5 6 9 13 15 17 18 18 18 18 19 20 22 24 27 29 31 33 35 36 37 38 38 39 38 38 38 37 37 37 36 36 36 36 36 36 36 36 36 36 36 36 36 35 35 35 35 36 37 38 39 40 42 42 41 40 40 40 40 40 40 40 40 39 38 38 37
10 10 10 10 10 10 10 10 10 9 9 8 7 7 7 7 7 7 7 7 8 10 12 14 15 17 18 19 19 19 21 22 24 25 27 29 31 33 34 35 36 37 37 38 38 38 38 37 37 36 35 35 35 35 35 35 35 35 35 36 35 35 35 35 34 35 36 37 38 40 41 42 41 41 40 40 41 41 40 40 40 39 39 39 38
10 11 11 10 10 9 9 9 9 9 9 9 8 8 8 8 7 7 8 9 9 10 11 13 14 15 17 18 19 20 21 22 23 24 25 27 28 30 31 32 33 34 35 36 37 38 38 38 37 36 36 36 36 35 35 35 34 34 34 34 34 35 35 35 35 35 36 37 38 39 40 41 41 41 41 41 41 41 41 41 41 41 40 40 39
10 10 11 11 10 9 9 9 9 9 9 9 9 9 8 9 9 8 8 9 10 11 12 13 14 15 15 17 18 20 21 22 23 24 25 26 28 29 30 31 32 32 33 34 35 36 37 38 38 38 38 38 38 38 38 38 37 37 37 37 37 37 37 37 37 37 37 38 38 39 40 40 40 41 42 42 42 42 42 42 42 42 41 40 40
10 10 11 11 10 10 9 8 8 8 8 9 9 9 9 10 10 10 10 9 10 11 12 14 15 16 16 16 17 19 20 21 22 24 25 26 27 29 30 31 31 32 32 33 34 35 36 37 38 38 38 38 38 38 39 39 40 40 40 40 40 41 41 41 41 41 40 39 39 39 39 39 39 39 41 42 43 43 43 42 41 41 41 40 39
12 11 11 10 10 10 9 9 8 8 8 8 8 9 10 10 11 12 12 12 11 11 12 13 15 16 16 16 17 18 20 21 22 23 24 25 27 28 29 30 31 32 32 33 34 34 35 36 37 37 38 38 38 38 38 39 40 40 41 42 42 43 43 43 43 43 42 42 41 41 40 40 40 40 40 41 42 43 43 42 42 42 41 41 40
14 13 12 12 11 10 9 9 8 8 8 8 8 8 9 10 11 12 13 14 14 14 13 13 14 15 16 17 17 18 19 21 22 23 24 25 27 28 29 30 32 33 34 34 35 35 36 37 37 38 38 38 39 39 39 39 40 40 41 42 43 43 44 44 44 43 43 43 43 43 42 42 42 42 42 42 43 43 43 44 44 44 44 44 43
16 15 15 14 13 12 11 10 9 9 8 8 8 8 8 9 10 11 12 14 15 16 16 16 16 16 17 17 18 19 19 20 21 22 23 24 26 27 29 30 32 33 34 35 36 37 37 38 38 39 39 40 40 40 41 41 41 42 42 43 43 44 44 44 44 44 44 44 44 44 44 44 44 44 44 44 44 44 45 45 45 45 46 45 45
17 16 16 15 15 14 13 12 11 10 9 9 9 9 9 9 9 10 11 12 14 16 17 18 18 18 18 19 19 20 20 21 22 23 23 24 25 26 27 29 30 31 33 34 35 36 37 38 39 40 40 41 41 42 42 42 43 43 43 43 44 44 44 44 44 45 45 45 46 45 45 45 45 45 45 45 45 45 45 46 46 46 46 46 46
17 16 16 15 15 15 14 14 13 12 11 11 10 10 10 10 10 10 11 11 12 14 16 17 19 20 20 21 21 21 22 22 23 24 24 25 26 27 28 28 29 30 31 32 34 35 36 37 38 39 40 41 42 42 43 43 43 44 44 44 44 45 44 44 44 45 45 45 45 45 46 46 46 46 46 46 46 46 46 46 47 47 47 46 46
16 16 16 16 15 15 15 14 14 14 13 12 12 11 11 11 11 11 11 11 12 13 14 15 17 18 20 21 22 23 23 24 24 24 25 26 27 27 28 29 29 30 31 31 32 33 34 36 37 38 39 41 42 42 43 43 43 44 44 44 45 45 45 45 45 46 46 45 45 46 46 47 47 47 47 47 47 47 47 47 47 47 47 47 47
16 16 16 16 16 15 15 15 15 14 14 13 13 13 12 12 11 11 12 12 12 13 13 14 15 16 18 19 21 23 24 25 26 26 26 27 27 27 28 29 29 30 31 31 32 33 34 35 36 37 39 40 41 42 42 43 43 43 44 44 45 45 46 46 46 46 46 46 46 46 46 47 47 48 48 48 48 48 48 48 48 48 48 47 46
16 16 16 16 16 16 15 15 15 15 14 14 14 13 13 13 12 12 12 12 12 13 13 14 14 15 16 17 19 20 22 24 25 26 27 28 28 28 29 29 29 30 30 31 31 32 33 34 35 36 37 38 39 40 41 42 43 43 44 44 45 45 46 46 46 46 46 46 46 46 46 47 47 48 48 48 48 48 49 49 48 48 48 47 46
15 16 16 16 16 16 16 16 15 15 15 15 15 15 14 14 13 13 13 13 13 13 13 14 14 15 16 16 17 18 19 21 23 24 26 27 28 29 29 29 29 30 30 30 31 31 32 32 33 33 34 35 37 38 39 41 42 42 43 44 44 45 46 46 46 47 46 46 46 46 47 47 47 48 48 48 48 48 48 48 48 48 47 47 46
16 16 16 16 16 16 16 16 16 16 16 16 16 16 16 15 15 15 14 14 14 14 14 14 14 15 16 16 17 17 18 18 19 21 23 24 26 27 28 28 29 29 29 30 30 30 31 31 31 32 32 33 34 36 37 38 39 40 41 42 43 43 44 45 45 46 46 46 46 47 47 47 48 48 47 47 47 47 46 46 46 46 46 45 44
Wind_Direction
240 237 232 228 227 226 224 223 223 224 224 224 224 225 225 225 225 224 224 223 223 222 222 222 222 221 219 216 216 218 219 218 218 219 219 220 221 221 222 222 223 224 226 227 228 229 229 229 230 231 231 233 236 239 241 243 246 251 253 255 256 256 258 259 263 269 270 269 271 271 270 268 270 276 281 286 291 289 283 280 276 272 272 276 281
240 237 232 228 226 224 220 219 221 222 222 223 224 224 224 224 223 223 222 223 222 222 222 222 222 221 218 215 216 220 220 218 218 219 219 219 221 222 221 222 224 225 226 227 228 228 229 230 231 232 232 233 236 238 238 240 244 249 252 254 255 256 257 257 259 264 265 265 267 269 270 269 269 272 276 281 286 288 287 284 279 276 277 279 282
239 236 231 227 225 221 218 218 219 221 221 222 223 223 223 222 222 221 221 222 222 221 221 222 222 221 218 217 218 220 221 219 219 219 220 220 220 221 221 222 224 225 226 228 228 228 229 230 230 231 232 234 236 238 239 241 245 249 251 253 254 256 257 257 257 260 261 262 263 265 267 268 269 271 274 277 281 284 287 287 284 280 279 280 283
238 234 228 226 222 218 217 217 219 220 221 221 222 222 222 221 220 220 220 221 221 221 221 221 221 221 220 219 219 220 220 220 220 219 220 221 221 221 222 223 225 226 227 228 229 228 230 231 231 231 232 233 235 237 239 243 247 250 252 254 254 255 257 258 259 260 260 260 261 263 266 268 269 269 270 273 276 281 285 287 285 281 280 280 282
236 231 226 223 219 215 214 215 217 220 220 221 221 221 222 221 219 219 219 220 220 220 220 220 221 221 221 220 220 220 220 221 221 220 220 221 221 222 223 224 225 227 228 229 230 229 230 231 232 232 232 233 235 236 239 242 247 250 253 256 257 256 256 258 260 262 261 259 259 263 266 268 269 268 267 269 273 277 281 284 284 282 280 281 282
233 228 222 221 218 215 215 216 218 220 219 219 220 220 221 220 218 218 218 219 220 220 219 219 220 221 222 221 221 220 221 221 222 221 221 222 222 222 224 225 226 228 229 230 230 230 230 231 233 233 232 234 235 236 239 242 246 249 252 256 259 258 256 257 260 263 263 260 259 261 263 266 268 267 266 266 269 272 277 281 282 281 279 280 282
230 225 220 219 218 217 217 218 219 220 219 218 218 219 220 220 218 217 218 218 219 219 219 220 221 221 222 222 222 221 221 222 222 222 223 223 223 223 224 225 226 228 230 231 231 229 230 232 233 232 232 233 235 237 239 242 245 248 251 255 258 258 257 257 258 261 263 262 260 261 263 265 267 267 267 266 267 270 272 275 277 278 278 278 281
227 223 219 218 218 217 216 217 218 219 219 218 217 218 219 219 218 217 217 218 219 219 220 220 221 222 223 222 221 221 221 221 221 221 222 224 223 223 224 224 226 228 230 231 231 229 230 232 233 233 232 233 235 237 239 241 244 247 250 253 255 257 258 257 257 259 262 262 261 262 264 265 266 267 266 264 264 267 269 270 273 275 276 278 280
224 221 218 217 218 216 215 216 216 217 218 218 216 217 217 218 218 217 217 218 219 220 220 221 222 223 223 223 221 220 219 219 218 219 221 223 224 224 224 225 227 228 229 231 231 230 230 232 233 233 234 234 235 238 239 241 243 246 249 251 253 255 257 257 256 258 260 262 262 262 263 264 264 265 264 263 265 267 269 270 271 273 275 277 279
221 220 217 217 217 217 215 215 216 216 217 217 216 216 216 217 218 217 217 218 219 220 220 221 223 224 225 225 224 223 222 220 219 220 221 223 224 224 225 226 227 228 229 231 231 230 230 232 233 234 235 236 237 238 239 241 243 245 248 250 251 253 255 256 256 256 258 260 261 261 261 262 263 264 265 266 267 268 269 269 270 271 273 276 279
218 218 217 216 216 216 216 216 216 216 216 216 216 215 215 216 217 218 217 218 219 220 221 222 224 224 225 226 225 225 224 223 222 222 222 224 224 224 225 226 227 228 229 231 231 229 230 232 234 234 236 237 238 238 239 240 243 245 246 248 249 251 254 255 255 256 257 259 261 261 261 262 263 264 265 266 267 267 267 268 269 269 270 273 278
215 216 216 215 214 214 214 215 216 216 216 216 215 215 215 215 217 217 218 218 219 219 221 222 224 225 225 226 225 225 224 223 223 223 223 224 225 225 226 227 228 228 229 230 230 229 230 232 233 235 236 237 238 239 239 240 242 244 246 248 249 251 253 255 256 256 257 259 261 262 261 261 262 263 264 265 266 267 268 268 268 268 269 271 275
213 214 215 214 213 212 212 213 214 215 216 216 215 215 215 215 216 217 218 218 219 219 221 223 224 225 225 225 225 225 224 222 222 223 223 224 225 226 227 228 229 229 230 231 230 229 230 232 234 235 236 237 238 240 241 242 242 244 246 248 250 251 252 254 256 256 257 258 260 262 262 262 261 262 263 264 265 266 266 267 267 267 268 269 271
210 211 212 212 212 211 210 211 213 214 215 216 216 216 215 215 217 218 219 219 219 220 221 223 224 224 225 225 225 226 225 224 223 223 224 224 225 226 228 229 230 230 231 231 231 230 230 232 234 235 235 236 238 239 241 243 243 244 245 247 250 251 251 253 255 256 258 259 260 262 262 261 261 262 264 264 263 264 265 266 267 267 268 269 272
207 207 208 209 210 210 209 210 212 213 215 216 217 217 216 217 218 219 220 221 221 221 222 223 224 224 225 225 225 226 226 225 224 224 225 225 226 226 227 229 230 231 231 231 231 231 231 232 234 236 236 237 238 239 241 243 244 245 245 246 248 250 252 253 255 256 258 259 260 262 262 261 261 262 263 263 263 265 266 268 269 269 269 271 274
202 203 205 207 208 209 209 210 211 213 215 216 218 218 218 218 219 220 221 222 222 222 223 224 224 224 225 225 226 227 227 226 225 225 225 226 227 227 227 227 228 229 230 231 231 231 231 233 234 235 236 238 239 239 241 243 245 245 246 246 247 249 251 253 255 256 258 260 261 262 263 262 262 262 261 261 263 264 266 267 267 268 268 270 272
198 200 203 205 207 209 210 211 212 214 215 217 218 219 219 219 220 221 222 223 223 224 224 225 225 224 225 226 226 227 228 227 226 226 226 226 227 228 228 227 227 228 229 230 231 231 232 233 234 235 237 238 239 240 241 243 245 246 246 247 248 249 251 253 255 256 258 259 261 262 262 262 261 259 258 258 260 261 261 261 262 263 265 267 270
196 200 203 206 207 209 211 212 214 215 216 217 219 220 220 221 222 222 223 224 225 225 226 226 226 225 225 226 227 227 228 228 228 228 227 227 227 229 229 228 227 228 229 230 231 231 232 234 235 236 237 238 239 240 241 243 245 246 247 249 249 251 252 253 255 256 257 259 260 261 261 261 260 258 257 256 256 257 258 259 259 261 264 266 269
196 201 205 207 209 210 212 213 215 216 218 219 220 221 222 223 223 223 224 224 225 226 226 226 226 226 226 226 227 227 228 229 229 229 228 228 228 229 229 228 228 228 229 229 230 232 233 235 235 236 237 238 239 240 242 244 246 247 248 250 251 252 253 254 255 256 257 259 260 259 259 259 259 259 258 257 255 256 259 259 258 260 263 264 267
201 204 207 209 210 212 213 215 216 217 219 221 222 223 223 224 224 224 225 225 225 226 226 226 227 227 226 226 227 228 229 230 230 230 230 229 228 229 229 228 228 228 229 230 230 232 234 235 236 236 238 239 240 241 243 244 246 248 249 250 251 253 254 255 256 257 258 259 260 258 257 257 258 259 259 258 257 257 258 257 257 260 262 263 265
210 210 212 213 214 215 217 218 220 221 223 223 224 224 225 225 225 225 226 226 226 226 226 226 227 227 227 227 227 227 228 230 231 231 231 230 229 229 229 229 229 230 230 231 231 233 234 235 236 237 238 240 241 242 244 245 246 248 249 251 253 254 255 256 257 257 258 259 259 258 256 255 257 258 259 259 259 257 256 255 256 259 261 262 264
214 215 216 217 217 219 220 222 224 226 227 227 227 227 227 227 227 227 227 227 226 226 226 226 227 228 228 228 228 227 228 229 231 231 232 231 230 230 230 230 230 231 232 233 233 234 235 236 238 238 239 241 242 243 244 245 247 249 251 253 255 255 256 257 257 258 259 259 258 257 254 253 254 255 257 259 258 256 254 254 256 259 261 262 264
214 216 218 219 221 223 225 227 229 230 232 232 231 230 230 229 229 228 228 227 227 226 227 227 228 228 228 228 227 227 227 229 230 231 232 232 231 231 231 231 231 232 234 234 234 235 236 238 239 240 241 242 244 245 246 247 249 251 253 255 256 256 256 257 257 258 259 258 257 255 253 252 252 254 256 257 256 254 254 254 256 258 260 262 264
215 217 221 224 227 229 231 233 234 235 235 235 234 232 231 230 229 229 228 228 227 227 227 227 227 228 228 228 228 227 227 228 230 231 232 233 232 232 232 231 232 233 234 234 235 236 237 239 240 241 243 244 245 246 247 248 250 252 254 256 256 256 256 257 257 257 257 256 255 254 252 250 250 253 255 254 254 254 254 254 255 257 259 261 264
227 226 228 230 233 237 239 240 240 239 237 236 234 232 231 230 229 228 228 227 227 227 227 227 227 228 228 228 228 227 227 228 229 231 232 233 233 233 232 232 233 233 234 235 236 237 238 240 241 242 243 244 245 246 247 248 250 252 254 254 255 255 256 256 256 256 255 254 253 253 251 248 249 252 253 252 253 255 254 254 255 255 258 261 264
247 240 239 242 250 256 255 252 248 243 239 237 234 232 231 230 229 228 227 227 227 227 227 227 227 228 228 229 228 228 227 228 229 231 232 233 234 234 233 233 234 234 236 237 237 238 240 241 242 243 243 243 243 245 247 248 250 251 252 253 254 256 256 256 255 254 253 252 252 251 249 247 247 250 251 251 252 254 254 254 255 255 257 260 263
259 255 259 268 279 279 271 263 257 248 241 238 235 232 230 229 228 227 227 226 226 227 227 226 226 227 228 229 228 227 227 228 229 231 232 233 234 234 234 235 235 236 236 237 238 239 240 241 242 243 242 242 243 244 246 248 249 250 251 253 254 255 255 255 254 253 252 252 250 249 248 247 247 248 249 250 251 252 253 253 254 255 257 259 261
276 279 286 291 299 303 294 280 266 251 239 234 232 230 229 228 227 226 226 225 225 225 226 226 226 227 228 228 228 227 227 227 229 230 232 233 234 234 235 235 235 236 236 237 238 239 239 240 241 241 241 242 243 245 246 247 248 249 251 252 253 253 253 253 253 253 252 251 249 248 247 247 246 246 248 248 250 251 252 252 253 255 257 258 260
295 299 303 302 310 325 330 322 300 258 233 226 226 226 226 226 225 225 225 224 223 223 224 224 225 227 228 228 227 227 227 228 229 230 231 232 233 235 235 236 236 236 237 237 238 238 239 240 240 241 241 242 244 245 246 247 248 249 250 251 251 251 252 252 252 252 252 250 248 247 247 247 246 245 246 247 249 251 251 251 252 255 257 258 259
301 304 306 308 319 334 342 350 1 359 218 211 216 222 224 225 225 224 224 223 222 222 223 224 225 226 227 227 227 227 227 228 229 230 231 232 234 235 236 236 236 237 237 237 238 238 239 240 240 241 241 243 244 246 247 248 248 249 249 250 250 250 251 252 252 252 252 250 248 246 246 246 245 245 245 246 248 250 251 251 252 254 256 257 258
307 306 306 310 323 339 346 351 6 20 52 162 194 209 214 217 221 223 223 222 221 222 223 224 226 227 227 227 226 226 227 228 229 230 231 232 234 236 237 236 236 237 236 236 237 238 239 240 241 241 242 243 245 246 248 248 248 249 250 251 251 251 251 252 252 252 251 250 248 246 245 245 244 245 245 246 248 249 250 251 252 254 255 256 257
307 309 312 315 322 331 335 338 353 8 21 60 163 191 196 200 208 218 221 218 217 219 221 223 226 227 227 227 226 225 226 227 228 229 230 231 233 234 235 236 236 235 235 236 237 238 239 240 241 242 244 245 246 247 248 248 249 250 250 251 252 252 251 251 251 250 250 249 248 246 244 244 244 245 245 246 247 248 249 250 252 253 255 256 257
305 308 315 319 322 326 327 326 332 340 343 343 320 211 204 198 196 206 212 210 209 211 214 218 222 224 225 225 225 225 225 226 227 229 230 230 231 233 234 235 235 234 235 236 238 239 240 241 243 244 245 246 247 248 249 250 251 251 252 252 252 252 252 251 250 249 248 248 246 244 244 244 244 244 246 246 246 247 249 250 251 253 255 256 256
307 309 313 314 315 320 321 314 310 313 318 319 304 255 232 220 216 217 211 203 202 204 207 211 215 217 219 221 223 223 224 225 227 228 229 230 231 233 234 235 235 235 236 237 238 240 241 242 243 244 246 247 248 249 250 250 251 252 253 253 253 252 251 251 250 249 248 246 244 242 242 242 243 244 246 247 247 248 248 249 250 253 254 255 255
311 312 315 313 310 312 314 311 308 305 304 304 282 254 260 255 234 228 220 208 203 203 205 209 212 213 216 219 221 222 224 226 228 229 229 230 231 232 234 235 236 237 238 238 239 240 241 242 243 244 245 246 248 248 249 249 250 251 252 252 252 251 250 250 249 247 246 244 242 240 240 241 243 245 247 248 248 248 248 248 250 253 254 254 255
318 316 316 314 309 308 308 309 310 305 297 290 267 249 258 273 260 237 226 217 213 211 211 215 218 219 220 223 225 226 227 228 229 230 230 230 231 232 234 236 237 237 238 239 240 241 241 242 243 244 245 246 248 248 249 249 250 250 251 251 251 250 250 250 249 247 245 243 241 239 240 242 244 246 248 249 249 249 249 249 251 253 254 255 256
329 323 320 316 310 306 304 304 306 305 301 294 275 255 258 268 265 246 233 227 224 222 221 223 225 227 229 230 231 232 231 230 230 231 232 232 232 233 235 236 237 238 239 240 240 241 241 242 243 244 246 247 249 249 250 250 251 251 251 250 249 249 249 249 249 248 246 244 242 241 242 245 247 248 248 249 250 250 251 251 252 253 254 255 256
341 336 331 325 317 311 305 301 301 300 299 297 289 273 266 268 266 253 242 238 236 233 232 231 231 233 236 237 236 236 235 233 233 234 234 234 233 234 236 237 237 238 239 240 240 240 240 241 243 244 246 248 249 250 250 250 250 250 250 249 248 247 247 248 250 249 247 245 245 246 247 249 250 250 250 250 250 251 252 252 253 253 254 255 255
347 345 341 336 329 320 312 305 300 297 294 292 291 285 276 272 272 266 255 247 244 243 242 241 239 239 241 241 239 237 237 236 236 237 237 237 236 236 237 238 239 240 241 242 242 241 241 242 243 245 247 248 249 250 250 250 250 249 249 248 248 248 247 248 249 249 248 248 249 250 251 251 252 252 251 251 252 253 254 254 254 254 255 255 256
349 348 347 343 338 330 322 314 306 300 295 289 285 282 278 272 270 269 265 258 252 249 249 248 248 248 248 245 242 240 240 240 240 240 240 240 240 241 241 241 242 244 244 244 244 244 244 244 245 247 249 250 250 251 251 251 252 251 250 250 251 251 250 249 249 250 251 252 252 252 252 252 253 253 252 252 252 253 254 255 255 255 256 257 258
351 349 348 347 345 340 334 327 316 307 300 293 287 282 278 272 267 265 265 264 259 255 253 252 252 254 255 253 249 246 244 243 243 243 242 242 242 242 243 244 245 246 247 247 247 247 246 247 247 249 250 251 252 252 252 253 253 253 253 253 253 253 253 253 252 253 254 254 254 254 253 252 252 253 254 254 254 254 254 254 255 256 258 258 257
2 357 352 350 348 345 341 336 330 321 312 302 294 288 282 276 270 266 264 264 262 259 257 255 254 254 255 255 253 249 247 246 246 246 246 245 244 245 246 246 247 248 249 249 249 249 249 249 249 250 251 251 252 253 253 253 254 253 253 253 254 255 255 255 255 255 256 256 256 256 255 253 252 254 255 255 255 255 254 254 255 256 257 257 256
14 9 5 360 355 351 346 340 336 332 326 318 310 301 292 284 277 271 266 265 264 263 262 260 258 256 255 254 253 250 247 248 248 248 248 249 248 248 249 249 250 250 250 250 250 250 250 251 252 252 252 253 253 253 254 254 254 254 254 254 254 255 255 256 256 257 257 257 256 256 255 254 254 254 255 256 256 256 256 256 256 256 256 257 256
17 15 12 9 5 2 356 349 343 337 332 328 323 316 307 298 289 281 273 268 266 265 264 264 263 261 259 258 256 253 251 251 251 251 251 252 252 252 252 252 253 253 253 253 253 252 252 253 253 254 254 255 255 255 255 255 255 255 255 255 255 256 256 256 256 256 257 257 257 256 256 255 255 255 256 256 256 257 257 257 257 257 256 256 255
14 14 13 11 10 7 4 360 355 348 341 334 328 321 316 309 302 295 286 278 272 268 266 265 265 265 264 262 261 259 258 257 257 256 256 256 256 256 256 256 256 256 256 256 256 256 256 255 255 256 256 256 256 256 256 256 256 256 255 255 256 256 256 256 257 257 257 257 257 257 257 256 255 255 256 257 257 257 258 258 258 257 256 255 254
9 10 10 9 9 7 5 2 359 355 350 343 335 327 321 316 311 306 300 292 284 277 273 270 268 267 266 265 264 263 262 261 261 261 261 261 261 260 260 259 259 258 258 258 258 258 258 258 257 257 258 258 258 257 256 256 256 256 256 255 255 255 256 256 257 257 257 258 258 257 257 257 256 256 256 257 257 258 258 258 258 257 257 255 254
2 4 4 4 4 4 2 0 358 356 353 348 343 336 328 322 316 312 308 303 298 291 284 279 274 271 269 267 266 265 265 264 263 263 263 263 263 263 263 263 262 261 261 260 260 260 260 259 259 259 259 258 258 258 257 257 257 256 256 256 256 256 256 256 257 257 257 257 258 257 257 257 257 257 257 258 259 259 259 259 258 258 257 256 255
356 357 358 358 358 358 357 355 353 351 349 346 344 340 335 329 323 318 312 309 305 300 295 290 285 280 276 272 270 268 267 266 265 265 265 265 265 265 264 264 264 264 264 264 264 263 262 262 261 261 260 259 259 258 258 258 257 257 257 257 257 257 257 257 257 258 258 257 257 257 257 257 258 258 258 259 259 259 259 259 258 258 258 256 255
349 351 351 352 352 351 350 350 348 346 343 340 338 336 334 332 328 324 319 314 309 304 300 296 293 289 285 282 278 275 272 270 269 268 267 267 267 267 266 266 266 265 265 265 265 265 265 264 264 263 262 261 260 259 259 259 258 258 258 258 258 257 257 257 257 258 258 258 258 258 258 258 258 258 259 259 259 259 259 259 259 258 257 256 255
343 345 346 346 346 345 345 345 344 342 340 337 334 331 329 327 325 323 321 318 314 310 306 301 297 294 291 288 285 283 280 277 274 272 270 269 269 269 269 269 269 268 266 266 265 265 265 265 264 264 263 262 260 259 259 258 258 258 258 258 258 257 257 257 257 257 257 258 258 258 258 258 258 259 259 259 259 259 260 260 259 258 256 255 253
339 340 341 342 342 341 341 341 340 339 338 336 334 331 328 325 322 319 318 316 314 312 309 306 303 299 296 293 290 288 286 284 281 278 275 273 271 270 270 270 270 270 270 269 268 267 266 266 265 265 264 264 263 262 261 260 259 259 259 259 259 258 258 258 258 257 257 258 258 259 258 258 258 259 259 259 260 260 260 260 259 257 255 254 252